Regional Weather Roundup
Issued by NWS

Home | Current Version | Previous Version | Text Only | Print | Product List | Glossary On
Versions: 1 2 3 4 5 6 7 8 9 10 11 12 13 14 15 16 17 18 19 20 21 22 23 24 25 26 27 28 29 30 31 32 33 34 35 36 37 38 39 40 41 42 43 44 45 46 47 48 49 50
000
ASUS43 KMKX 290721
RWRWI

WISCONSIN REGIONAL WEATHER ROUNDUP
NATIONAL WEATHER SERVICE MILWAUKEE/SULLIVAN WI
200 AM CDT FRI AUG 29 2014

NOTE: "FAIR" INDICATES FEW OR NO CLOUDS BELOW 12,000 FEET WITH NO
SIGNIFICANT WEATHER AND/OR OBSTRUCTIONS TO VISIBILITY.

WIZ001-002-006>008-014>016-023>028-290800-
NORTHWEST WISCONSIN

CITY           SKY/WX    TMP DP  RH WIND       PRES   REMARKS
SUPERIOR ARPT  CLOUDY    62  59  91 NE6       29.91F
ASHLAND        CLOUDY    60  57  89 E3        29.95F
HAYWARD        CLOUDY    65  61  87 SE13G18   29.94F
SIREN          CLOUDY    65  62  89 SE8       29.90F
RICE LAKE      CLOUDY    64  59  86 SE14      29.93F
LADYSMITH      CLOUDY    62  59  90 SE9       29.98F
EAU CLAIRE     CLOUDY    61  58  90 SE12      29.92F
MENOMONIE      CLOUDY    62  60  93 E10G17    29.92F
NEW RICHMOND   LGT RAIN  64  63  97 SE8       29.89F
OSCEOLA        CLOUDY    65  65 100 SE10      29.90F
$$

WIZ003>005-009-010-017-018-290800-
NORTH CENTRAL WISCONSIN

CITY           SKY/WX    TMP DP  RH WIND       PRES   REMARKS
WOODRUFF       CLOUDY    62  56  81 S9        30.01F
RHINELANDER    CLOUDY    59  56  89 S6        30.03F
EAGLE RIVER    CLOUDY    59  57  92 S3        30.02F
LAND O LAKES   CLOUDY    61  56  82 S5        30.03S
PHILLIPS       CLOUDY    60  57  91 S9        29.98F
TOMAHAWK       DRIZZLE   58  56  93 CALM      30.02F
MEDFORD        DRIZZLE   57  56  97 SE8G21    29.99F
MERRILL        RAIN      58  58  99 SE6       30.01F
$$

WIZ029-030-035-036-043>047-290800-
CENTRAL WISCONSIN

CITY           SKY/WX    TMP DP  RH WIND       PRES   REMARKS
WAUSAU         LGT RAIN  57  55  93 SE8       29.99F FOG
MOSINEE        DRIZZLE   54  54 100 NE5       30.02F
MARSHFIELD     CLOUDY    57  54  89 E7        29.98F
STEVENS POINT  HVY RAIN  56  55  97 E6        30.01F
WAUPACA        RAIN      62  60  94 NE5       30.01F
WAUTOMA        CLOUDY    61  59  94 NE6       29.98F
WISC RAPIDS    LGT RAIN  58  56  93 E6        30.00F
CAMP DOUGLAS   CLOUDY    59  59 100 E6        29.96F
$$

WIZ011>013-019>022-031-037>040-048>050-290800-
NORTHEAST WISCONSIN

CITY           SKY/WX    TMP DP  RH WIND       PRES   REMARKS
ANTIGO         RAIN      56  56  99 S8        30.04F
STURGEON BAY   CLOUDY    63  57  82 SE6       30.04S
GREEN BAY      LGT RAIN  62  59  90 E7        30.02F
MANITOWOC      CLOUDY    66  60  81 SE8       30.02F
APPLETON       HVY RAIN  61  59  94 SE6       30.02S
CLINTONVILLE   RAIN      59  57  94 E5        30.03F
OSHKOSH        LGT RAIN  63  61  93 SE6       29.99F
$$

WIZ032>034-041-042-053>061-290800-
SOUTHWEST WISCONSIN

CITY           SKY/WX    TMP DP  RH WIND       PRES   REMARKS
LA CROSSE      CLOUDY    66  61  84 E6        29.91F
SPARTA         CLOUDY    61  59  92 E3        29.95F
VIROQUA        CLOUDY    63  63 100 SE7       29.94F
BOSCOBEL       CLOUDY    68  61  78 CALM      29.94F
PRAIRIE DU CHI CLOUDY    67  63  85 E6        29.92F
PLATTEVILLE    FAIR      64  63  96 CALM      29.97F
$$

WIZ056-057-062-063-064-067-068-290800-
SOUTH CENTRAL WISCONSIN

CITY           SKY/WX    TMP DP  RH WIND       PRES   REMARKS
BARABOO/DELLS  MOCLDY    64  58  82 CALM      29.96F
LONE ROCK      MOCLDY    67  60  78 E5        29.95F
WATERTOWN      MOCLDY    64  62  91 SE8       29.98F
MADISON        CLOUDY    65  61  87 SE6       29.97F
MIDDLETON      CLOUDY    65  63  91 SE6       29.97F
MONROE         MOCLDY    63  63 100 SE7       29.97F FOG
JANESVILLE     MOCLDY    66  63  88 SE5       29.97F
$$

WIZ051-052-058>065-066-070>072-290800-
SOUTHEAST WISCONSIN

CITY           SKY/WX    TMP DP  RH WIND       PRES   REMARKS
MILWAUKEE      MOCLDY    69  63  81 SE9       30.00F
WAUKESHA       PTCLDY    63  59  88 E5        30.01F
MILWAUKEE/TIMM MOCLDY    68  59  73 SE7       30.01F
RACINE         MOCLDY    70  65  84 SE7       30.01F
BURLINGTON     MOCLDY    60  59  97 CALM      29.99F
KENOSHA        MOCLDY    69  67  93 SE5       30.00F
FOND DU LAC    CLOUDY    64  59  83 SE9       29.99F
SHEBOYGAN      LGT RAIN  64  59  83 SE3       30.01F
WEST BEND      CLOUDY    63  57  82 SE5       30.00F
JUNEAU         MOCLDY    64  59  84 E9        29.99F
$$

LSZ147-162-290800-
LAKE SUPERIOR

STATION/POSITION TIME  TEMP    WIND        PRES    WAVE
                       AIR SEA DIR/SP/G            HT/PER
                 (UTC) (F)     (DEG/KT/KT) (MB)    (FT/S)
W MID LAKE BUOY  0650   60 57  170/  8/  8 1014.0F   0
DEVILS ISLAND    0700   62      70/  2/  3 1013.7F
PORT WING        0600   62      CALM  /  1 1014.2F
SAXON HARBOR     0600   65        CALM     1014.6F
$$

LMZ867-665-643>646-290800-
LAKE MICHIGAN

STATION/POSITION TIME  TEMP    WIND        PRES    WAVE
                       AIR SEA DIR/SP/G            HT/PER
                 (UTC) (F)     (DEG/KT/KT) (MB)    (FT/S)
N MID LAKE BUOY  0650   65 65  110/ 14/ 16 1017.5F   1/ 3
NORTHPORT PIER   0600   65     130/ 13/ 15 1017.6F
SISTER BAY       0641   64     150/  7/  9   N/A
ALGOMA LAKESHORE 0608          150/ 10/ 12   N/A
KEWAUNEE LAKESHO 0600   65     120/  5/  9 1016.6F
SHEBOYGAN LAKESH 0700   67 69  140/ 12/ 15 1016.2F
ATWATER BUOY     0700   70     140/ 14/ 17 1016.6F
MILWAUKEE LAKESH 0700   69     140/ 11/ 13   N/A
S MID LAKE BUOY  0650   69 69  130/ 14/ 16 1016.0F   2/ 4
KENOSHA   LAKESH 0700   71     150/ 10/ 12 1015.2F
$$

TC  - TEMPERATURE IN CELSIUS
VSB - VISIBILITY IN STATUTE MILES
WCI - WIND CHILL INDEX
HX  - HEAT INDEX



USA.gov is the U.S. government's official web portal to all federal, state and local government web resources and services.